Time,TemperatureF,DewpointF,PressureIn,WindDirection,WindDirectionDegrees,WindSpeedMPH,WindSpeedGustMPH,Humidity,HourlyPrecipIn,Conditions,Clouds,dailyrainin,SolarRadiationWatts/m^2,SoftwareType,DateUTC
2013-01-11 00:00:00,36.6,36.0,29.95,North,355,0.0,-999.0,99,-99.99,,,0.00,0,weatherlink.com 1.10,2013-01-11 00:00:00,
2013-01-11 00:15:00,36.6,36.0,29.95,North,355,0.0,-999.0,99,-99.99,,,0.00,0,weatherlink.com 1.10,2013-01-11 00:15:00,
2013-01-11 00:30:00,36.8,37.0,29.95,North,355,1.0,-999.0,99,-99.99,,,0.00,0,weatherlink.com 1.10,2013-01-11 00:30:00,
2013-01-11 00:45:00,36.9,37.0,29.95,North,355,0.0,-999.0,99,-99.99,,,0.00,0,weatherlink.com 1.10,2013-01-11 00:45:00,
2013-01-11 01:00:00,37.0,37.0,29.95,North,355,0.0,-999.0,99,-99.99,,,0.00,0,weatherlink.com 1.10,2013-01-11 01:00:00,
2013-01-11 01:15:00,37.0,37.0,29.95,North,355,0.0,-999.0,99,-99.99,,,0.00,0,weatherlink.com 1.10,2013-01-11 01:15:00,
2013-01-11 01:30:00,37.1,37.0,29.95,North,355,0.0,-999.0,99,-99.99,,,0.00,0,weatherlink.com 1.10,2013-01-11 01:30:00,
2013-01-11 01:45:00,37.2,37.0,29.95,North,355,0.0,-999.0,99,-99.99,,,0.00,0,weatherlink.com 1.10,2013-01-11 01:45:00,
2013-01-11 02:00:00,37.3,37.0,29.95,North,355,0.0,-999.0,99,-99.99,,,0.00,0,weatherlink.com 1.10,2013-01-11 02:00:00,
2013-01-11 02:15:00,37.3,37.0,29.95,North,355,0.0,-999.0,99,-99.99,,,0.00,0,weatherlink.com 1.10,2013-01-11 02:15:00,
2013-01-11 02:30:00,37.4,37.0,29.95,North,355,0.0,-999.0,99,-99.99,,,0.01,0,weatherlink.com 1.10,2013-01-11 02:30:00,
2013-01-11 02:45:00,37.4,37.0,29.95,North,355,0.0,-999.0,99,-99.99,,,0.01,0,weatherlink.com 1.10,2013-01-11 02:45:00,
2013-01-11 03:00:00,37.5,37.0,29.95,North,355,0.0,-999.0,99,-99.99,,,0.01,0,weatherlink.com 1.10,2013-01-11 03:00:00,
2013-01-11 03:15:00,37.6,37.0,29.95,North,355,0.0,-999.0,99,-99.99,,,0.01,0,weatherlink.com 1.10,2013-01-11 03:15:00,
2013-01-11 03:45:00,37.7,38.0,29.95,North,355,0.0,-999.0,99,-99.99,,,0.01,0,weatherlink.com 1.10,2013-01-11 03:45:00,
2013-01-11 04:00:00,37.7,38.0,29.95,North,355,0.0,-999.0,99,-99.99,,,0.01,0,weatherlink.com 1.10,2013-01-11 04:00:00,
2013-01-11 04:15:00,37.8,38.0,29.95,North,355,0.0,-999.0,99,-99.99,,,0.01,0,weatherlink.com 1.10,2013-01-11 04:15:00,
2013-01-11 04:30:00,37.9,38.0,29.95,North,355,0.0,-999.0,99,-99.99,,,0.01,0,weatherlink.com 1.10,2013-01-11 04:30:00,
2013-01-11 04:45:00,38.0,38.0,29.95,North,355,0.0,-999.0,99,-99.99,,,0.01,0,weatherlink.com 1.10,2013-01-11 04:45:00,
2013-01-11 05:15:00,38.1,38.0,29.95,North,355,0.0,-999.0,99,-99.99,,,0.01,0,weatherlink.com 1.10,2013-01-11 05:15:00,
2013-01-11 05:30:00,38.1,38.0,29.95,North,355,0.0,-999.0,99,-99.99,,,0.01,0,weatherlink.com 1.10,2013-01-11 05:30:00,
2013-01-11 05:45:00,38.1,38.0,29.95,North,355,0.0,-999.0,99,-99.99,,,0.01,0,weatherlink.com 1.10,2013-01-11 05:45:00,
2013-01-11 06:01:00,38.1,38.0,29.95,North,355,0.0,-999.0,99,-99.99,,,0.01,0,weatherlink.com 1.10,2013-01-11 06:01:00,
2013-01-11 06:15:00,38.0,38.0,29.95,North,355,0.0,-999.0,99,-99.99,,,0.01,0,weatherlink.com 1.10,2013-01-11 06:15:00,
2013-01-11 06:30:00,38.1,38.0,29.95,North,355,0.0,-999.0,99,-99.99,,,0.01,0,weatherlink.com 1.10,2013-01-11 06:30:00,
2013-01-11 06:45:00,38.3,38.0,29.95,North,355,0.0,-999.0,99,-99.99,,,0.01,0,weatherlink.com 1.10,2013-01-11 06:45:00,
2013-01-11 07:00:00,38.4,38.0,29.95,North,355,0.0,-999.0,99,-99.99,,,0.01,0,weatherlink.com 1.10,2013-01-11 07:00:00,
2013-01-11 07:15:00,38.5,38.0,29.95,North,355,0.0,-999.0,99,-99.99,,,0.01,0,weatherlink.com 1.10,2013-01-11 07:15:00,
2013-01-11 07:30:00,38.5,38.0,29.96,North,355,0.0,-999.0,99,-99.99,,,0.01,0,weatherlink.com 1.10,2013-01-11 07:30:00,
2013-01-11 07:45:00,38.6,38.0,29.96,North,355,0.0,-999.0,99,-99.99,,,0.01,0,weatherlink.com 1.10,2013-01-11 07:45:00,
2013-01-11 08:01:00,38.7,39.0,29.96,North,355,3.0,-999.0,99,-99.99,,,0.01,0,weatherlink.com 1.10,2013-01-11 08:01:00,
2013-01-11 08:16:00,38.8,39.0,29.96,North,355,0.0,-999.0,99,-99.99,,,0.01,0,weatherlink.com 1.10,2013-01-11 08:16:00,
2013-01-11 08:31:00,38.9,39.0,29.96,North,355,0.0,-999.0,99,-99.99,,,0.01,0,weatherlink.com 1.10,2013-01-11 08:31:00,
2013-01-11 08:46:00,38.9,39.0,29.96,North,355,0.0,-999.0,99,-99.99,,,0.01,0,weatherlink.com 1.10,2013-01-11 08:46:00,
2013-01-11 09:01:00,38.7,39.0,29.96,North,355,0.0,-999.0,99,-99.99,,,0.01,7,weatherlink.com 1.10,2013-01-11 09:01:00,
2013-01-11 09:16:00,38.5,38.0,29.96,North,355,0.0,-999.0,98,-99.99,,,0.01,14,weatherlink.com 1.10,2013-01-11 09:16:00,
2013-01-11 09:31:00,38.4,38.0,29.96,North,355,0.0,-999.0,99,-99.99,,,0.01,11,weatherlink.com 1.10,2013-01-11 09:31:00,
2013-01-11 09:46:00,38.6,38.0,29.96,North,355,0.0,-999.0,99,-99.99,,,0.01,16,weatherlink.com 1.10,2013-01-11 09:46:00,
2013-01-11 10:01:00,39.0,39.0,29.96,North,355,0.0,-999.0,99,-99.99,,,0.01,19,weatherlink.com 1.10,2013-01-11 10:01:00,
2013-01-11 10:16:00,39.4,39.0,29.96,North,355,0.0,-999.0,99,-99.99,,,0.01,26,weatherlink.com 1.10,2013-01-11 10:16:00,
2013-01-11 10:31:00,39.7,40.0,29.95,North,355,0.0,-999.0,99,-99.99,,,0.01,46,weatherlink.com 1.10,2013-01-11 10:31:00,
2013-01-11 10:46:00,39.9,40.0,29.95,North,355,0.0,-999.0,99,-99.99,,,0.01,56,weatherlink.com 1.10,2013-01-11 10:46:00,
2013-01-11 11:01:00,39.9,40.0,29.95,North,355,0.0,-999.0,99,-99.99,,,0.01,69,weatherlink.com 1.10,2013-01-11 11:01:00,
2013-01-11 11:16:00,40.0,40.0,29.95,North,355,1.0,-999.0,99,-99.99,,,0.01,77,weatherlink.com 1.10,2013-01-11 11:16:00,
2013-01-11 11:31:00,40.2,40.0,29.95,North,355,0.0,-999.0,99,-99.99,,,0.01,67,weatherlink.com 1.10,2013-01-11 11:31:00,
2013-01-11 11:46:00,40.3,40.0,29.95,North,355,1.0,-999.0,99,-99.99,,,0.01,76,weatherlink.com 1.10,2013-01-11 11:46:00,
2013-01-11 12:01:00,40.4,40.0,29.95,North,355,0.0,-999.0,99,-99.99,,,0.01,72,weatherlink.com 1.10,2013-01-11 12:01:00,
2013-01-11 12:16:00,40.5,40.0,29.95,NE,55,0.0,-999.0,99,-99.99,,,0.01,77,weatherlink.com 1.10,2013-01-11 12:16:00,
2013-01-11 12:31:00,40.7,41.0,29.95,NE,55,0.0,-999.0,99,-99.99,,,0.01,83,weatherlink.com 1.10,2013-01-11 12:31:00,
2013-01-11 12:46:00,41.0,41.0,29.94,NE,55,0.0,-999.0,99,-99.99,,,0.01,111,weatherlink.com 1.10,2013-01-11 12:46:00,
2013-01-11 13:01:00,41.9,42.0,29.94,NE,55,0.0,-999.0,99,-99.99,,,0.01,165,weatherlink.com 1.10,2013-01-11 13:01:00,
2013-01-11 13:16:00,42.2,42.0,29.94,NE,55,0.0,-999.0,99,-99.99,,,0.01,211,weatherlink.com 1.10,2013-01-11 13:16:00,
2013-01-11 13:31:00,42.5,42.0,29.93,NE,55,0.0,-999.0,98,-99.99,,,0.01,62,weatherlink.com 1.10,2013-01-11 13:31:00,
2013-01-11 13:46:00,42.1,42.0,29.93,NE,55,1.0,-999.0,98,-99.99,,,0.01,58,weatherlink.com 1.10,2013-01-11 13:46:00,
2013-01-11 14:01:00,41.9,41.0,29.92,NE,55,1.0,-999.0,98,-99.99,,,0.01,74,weatherlink.com 1.10,2013-01-11 14:01:00,
2013-01-11 14:16:00,41.9,41.0,29.92,East,94,2.0,-999.0,98,-99.99,,,0.01,33,weatherlink.com 1.10,2013-01-11 14:16:00,
2013-01-11 14:31:00,41.8,41.0,29.92,East,94,0.0,-999.0,97,-99.99,,,0.01,33,weatherlink.com 1.10,2013-01-11 14:31:00,
2013-01-11 14:46:00,42.0,41.0,29.92,East,94,0.0,-999.0,97,-99.99,,,0.01,40,weatherlink.com 1.10,2013-01-11 14:46:00,
2013-01-11 15:01:00,42.1,41.0,29.91,East,94,0.0,-999.0,97,-99.99,,,0.01,42,weatherlink.com 1.10,2013-01-11 15:01:00,
2013-01-11 15:16:00,42.1,41.0,29.91,East,92,0.0,-999.0,97,-99.99,,,0.01,25,weatherlink.com 1.10,2013-01-11 15:16:00,
2013-01-11 15:31:00,41.7,41.0,29.91,ENE,61,0.0,-999.0,96,-99.99,,,0.01,19,weatherlink.com 1.10,2013-01-11 15:31:00,
2013-01-11 15:46:00,41.3,40.0,29.91,ENE,61,2.0,-999.0,96,-99.99,,,0.01,9,weatherlink.com 1.10,2013-01-11 15:46:00,
2013-01-11 16:01:00,40.8,40.0,29.91,ENE,61,0.0,-999.0,96,-99.99,,,0.01,0,weatherlink.com 1.10,2013-01-11 16:01:00,
2013-01-11 16:16:00,40.3,39.0,29.91,ENE,61,1.0,-999.0,96,-99.99,,,0.01,0,weatherlink.com 1.10,2013-01-11 16:16:00,
2013-01-11 16:31:00,40.1,39.0,29.91,ENE,61,0.0,-999.0,96,-99.99,,,0.01,0,weatherlink.com 1.10,2013-01-11 16:31:00,
2013-01-11 16:46:00,39.8,39.0,29.91,ENE,61,0.0,-999.0,96,-99.99,,,0.01,0,weatherlink.com 1.10,2013-01-11 16:46:00,
2013-01-11 17:01:00,39.6,39.0,29.91,NE,38,0.0,-999.0,96,-99.99,,,0.01,0,weatherlink.com 1.10,2013-01-11 17:01:00,
2013-01-11 17:16:00,39.2,38.0,29.91,NNE,28,1.0,-999.0,95,-99.99,,,0.01,0,weatherlink.com 1.10,2013-01-11 17:16:00,
2013-01-11 17:31:00,38.9,38.0,29.91,NNE,28,0.0,-999.0,95,-99.99,,,0.01,0,weatherlink.com 1.10,2013-01-11 17:31:00,
2013-01-11 17:47:00,38.7,38.0,29.91,NNE,13,0.0,-999.0,96,-99.99,,,0.01,0,weatherlink.com 1.10,2013-01-11 17:47:00,
2013-01-11 18:01:00,38.8,38.0,29.90,North,5,2.0,-999.0,96,-99.99,,,0.01,0,weatherlink.com 1.10,2013-01-11 18:01:00,
2013-01-11 18:16:00,38.7,37.0,29.91,North,5,1.0,-999.0,95,-99.99,,,0.01,0,weatherlink.com 1.10,2013-01-11 18:16:00,
2013-01-11 18:31:00,38.6,37.0,29.91,NNW,344,0.0,-999.0,95,-99.99,,,0.01,0,weatherlink.com 1.10,2013-01-11 18:31:00,
2013-01-11 18:46:00,38.5,37.0,29.90,NNW,348,0.0,-999.0,95,-99.99,,,0.01,0,weatherlink.com 1.10,2013-01-11 18:46:00,
2013-01-11 19:16:00,38.6,37.0,29.90,North,349,2.0,-999.0,95,-99.99,,,0.01,0,weatherlink.com 1.10,2013-01-11 19:16:00,
2013-01-11 19:31:00,38.7,37.0,29.90,North,349,0.0,-999.0,95,-99.99,,,0.01,0,weatherlink.com 1.10,2013-01-11 19:31:00,
2013-01-11 19:46:00,38.8,37.0,29.90,NNE,32,2.0,-999.0,94,-99.99,,,0.01,0,weatherlink.com 1.10,2013-01-11 19:46:00,
2013-01-11 20:01:00,38.9,37.0,29.90,NE,36,2.0,-999.0,94,-99.99,,,0.01,0,weatherlink.com 1.10,2013-01-11 20:01:00,
2013-01-11 20:16:00,39.0,38.0,29.90,NNE,31,3.0,-999.0,94,-99.99,,,0.01,0,weatherlink.com 1.10,2013-01-11 20:16:00,
2013-01-11 20:31:00,39.0,37.0,29.89,NNE,19,3.0,-999.0,93,-99.99,,,0.01,0,weatherlink.com 1.10,2013-01-11 20:31:00,
2013-01-11 20:46:00,39.1,38.0,29.89,NNE,22,4.0,-999.0,94,-99.99,,,0.01,0,weatherlink.com 1.10,2013-01-11 20:46:00,
2013-01-11 21:01:00,39.0,38.0,29.89,NW,325,4.0,-999.0,94,-99.99,,,0.01,0,weatherlink.com 1.10,2013-01-11 21:01:00,
2013-01-11 21:16:00,38.8,37.0,29.89,NE,49,3.0,-999.0,94,-99.99,,,0.01,0,weatherlink.com 1.10,2013-01-11 21:16:00,
2013-01-11 21:31:00,38.7,37.0,29.89,NNE,33,4.0,-999.0,94,-99.99,,,0.01,0,weatherlink.com 1.10,2013-01-11 21:31:00,
2013-01-11 21:46:00,38.5,37.0,29.89,NNE,19,4.0,-999.0,94,-99.99,,,0.01,0,weatherlink.com 1.10,2013-01-11 21:46:00,
2013-01-11 22:01:00,38.2,37.0,29.89,NNE,12,3.0,-999.0,94,-99.99,,,0.01,0,weatherlink.com 1.10,2013-01-11 22:01:00,
2013-01-11 22:16:00,37.9,37.0,29.89,North,355,3.0,-999.0,95,-99.99,,,0.01,0,weatherlink.com 1.10,2013-01-11 22:16:00,
2013-01-11 22:31:00,37.7,36.0,29.89,North,9,5.0,-999.0,95,-99.99,,,0.01,0,weatherlink.com 1.10,2013-01-11 22:31:00,
2013-01-11 22:46:00,37.5,36.0,29.89,NNW,328,1.0,-999.0,95,-99.99,,,0.01,0,weatherlink.com 1.10,2013-01-11 22:46:00,
2013-01-11 23:01:00,37.4,36.0,29.89,North,11,3.0,-999.0,95,-99.99,,,0.01,0,weatherlink.com 1.10,2013-01-11 23:01:00,
2013-01-11 23:16:00,37.4,36.0,29.89,NNW,340,3.0,-999.0,95,-99.99,,,0.01,0,weatherlink.com 1.10,2013-01-11 23:16:00,
2013-01-11 23:31:00,37.4,36.0,29.89,NNE,26,4.0,-999.0,95,-99.99,,,0.01,0,weatherlink.com 1.10,2013-01-11 23:31:00,
2013-01-11 23:46:00,37.3,36.0,29.89,NE,40,3.0,-999.0,95,-99.99,,,0.01,0,weatherlink.com 1.10,2013-01-11 23:46:00,